Simultaneous Nadir Overpasses (SNOs) Predictions

Prediction of SNOs between GOES-17 and METOP-A Satellite Orbit:

Table of predicted SNOs for the next 14.0 days since TLE Epoch: 8/14/2020
Index Date Time (GOES-17) GOES-17 Lat,Lon METOP-A Lat,Lon Distance(km) Time Diff (sec)
1 08/17/2020 05:43:42 0.02,-137.19 0.01,-137.40 23.78 80
2 08/19/2020 17:41:55 -0.01,-137.19 -0.07,-137.02 20.06 80
3 08/22/2020 05:42:57 0.01,-137.17 0.11,-136.67 57.05 80
4 08/23/2020 18:01:49 -0.01,-137.16 0.91,-141.26 467.33 80
5 08/24/2020 17:38:31 -0.01,-137.15 -0.22,-136.29 98.71 80
6 08/26/2020 05:57:32 0.01,-137.13 -0.81,-140.93 431.80 80
7 08/27/2020 05:39:33 0.00,-137.12 0.27,-135.94 133.84 80
8 08/28/2020 17:55:45 -0.00,-137.10 0.75,-140.54 391.80 80
